This is the latest recevied weather packets stored in our database for station/object 9W2SSS-1. If no packets are shown the sender has not sent any weather packets the latest 10 day(s).
| Time | Temp. | Humidity | Pressure | Rain* | Wind** | Luminosity | Snow |
|---|---|---|---|---|---|---|---|
| 1777785802 | 35.56° C | 49% | 1007.8 hPa | - | - | - | - |
| 1777784602 | 35.56° C | 49% | 1008.2 hPa | - | - | - | - |
| 1777783401 | 35.56° C | 49% | 1008.2 hPa | - | - | - | - |
| 1777782201 | 36.11° C | 47% | 1008.8 hPa | - | - | - | - |
| 1777781001 | 37.78° C | 44% | 1009 hPa | - | - | - | - |
| 1777779801 | 37.22° C | 47% | 1009.3 hPa | - | - | - | - |
| 1777778601 | 40° C | 40% | 1009.6 hPa | - | - | - | - |
| 1777777401 | 39.44° C | 41% | 1009.6 hPa | - | - | - | - |
| 1777776200 | 38.33° C | 44% | 1009.7 hPa | - | - | - | - |
| 1777775000 | 39.44° C | 42% | 1009.6 hPa | - | - | - | - |
| 1777773800 | 40° C | 42% | 1009.7 hPa | - | - | - | - |
| 1777772601 | 40.56° C | 40% | 1009.6 hPa | - | - | - | - |
| 1777771401 | 40° C | 41% | 1009.3 hPa | - | - | - | - |
| 1777770209 | 39.44° C | 42% | 1009.2 hPa | - | - | - | - |
| 1777769000 | 38.33° C | 45% | 1008.8 hPa | - | - | - | - |
| 1777767800 | 36.67° C | 48% | 1008.4 hPa | - | - | - | - |
| 1777766600 | 34.44° C | 54% | 1007.9 hPa | - | - | - | - |
| 1777765400 | 30.56° C | 67% | 1007.9 hPa | - | - | - | - |
| 1777764200 | 29.44° C | 66% | 1007.7 hPa | - | - | - | - |
| 1777763000 | 28.89° C | 69% | 1007.4 hPa | - | - | - | - |
| 1777760601 | 28.89° C | 68% | 1007.1 hPa | - | - | - | - |
| 1777759401 | 28.89° C | 67% | 1007.2 hPa | - | - | - | - |
| 1777758201 | 28.89° C | 66% | 1007.2 hPa | - | - | - | - |
| 1777757001 | 28.33° C | 66% | 1007.1 hPa | - | - | - | - |
| 1777755801 | 28.33° C | 63% | 1007.3 hPa | - | - | - | - |
* Rain since midnight (hover to see other rain measurements)
** Current wind speed in m/s (hover to see current wind gust speed)